Tracking 19246 objects as of 19-Aug-2018
HD Live streaming from Space Station
objects crossing your sky now

FENGYUN 1C DEB

Track FENGYUN 1C DEB now!
10-day predictions


NORAD ID: 30065
Int'l Code: 1999-025PS
Perigee: 852.1 km
Apogee: 1,047.1 km
Inclination: 98.8 °
Period: 103.9 minutes
Semi major axis: 7320 km
RCS: 0.0379 m2 (small)
Launch date: May 10, 1999
Source: People's Republic of China (PRC)
Launch site: Taiyaun Space Center, China (TSC)

Note: This is SATELLITE DEBRIS
aabbcc
Your satellite tracking list
Your tracking list is empty




NASA's NSSDC Master Catalog

Two Line Element Set (TLE):
1 30065U 99025PS  18231.31194358  .00000004  00000-0  35326-4 0  9995
2 30065  98.7781 348.0718 0133171 110.1783 251.3754 13.86062350586554
Source of the keplerian elements: AFSPC